Regional Weather Roundup
Issued by NWS Green Bay, WI

Home | Current Version | Previous Version | Graphics & Text | Print | Product List | Glossary Off
Versions: 1 2 3 4 5 6 7 8 9 10 11 12 13 14 15 16 17 18 19 20 21 22 23 24 25 26 27 28 29 30 31 32 33 34 35 36 37 38 39 40 41 42 43 44 45 46 47 48 49 50

000
ASUS43 KGRB 231911
RWRGRB

NORTH-CENTRAL AND NORTHEAST WISCONSIN REGIONAL WEATHER ROUNDUP
NATIONAL WEATHER SERVICE GREEN BAY WI
200 PM CDT SUN APR 23 2017

WIZ005-009-010>012-018-019-232000-
NORTH CENTRAL WISCONSIN

CITY           SKY/WX    TMP DP  RH WIND       PRES   REMARKS
IRONWOOD       LGT RAIN  38  32  79 E6        30.15F
MANITOWISH WTR CLOUDY    38  37  96 E7        30.12F
ARBOR VITAE    CLOUDY    39  36  89 NE7       30.12F
EAGLE RIVER    LGT RAIN  36  32  85 E8        30.12F
LAND O LAKES   LGT SNOW  35  33  89 NE7       30.15F
RHINELANDER    PTSUNNY   48  36  63 E9        30.10F
PHILLIPS       CLOUDY    47  36  67 N9        30.09F
ANTIGO         SUNNY     52  39  61 NE9       30.08F
TOMAHAWK       PTSUNNY   53  38  57 E5        30.09F
MERRILL        SUNNY     53  41  64 E9        30.08F
$$

WIZ013-073-232000-
NORTHEAST WISCONSIN

CITY           SKY/WX    TMP DP  RH WIND       PRES   REMARKS
IRON MOUNTAIN  CLOUDY    40  27  59 NE8       30.14F
MARINETTE      MOSUNNY   41  32  70 E17       30.16F
OCONTO         SUNNY     44  33  65 E10G18    30.13F
$$

WIZ017-030-035>037-045-232000-
CENTRAL WISCONSIN

CITY           SKY/WX    TMP DP  RH WIND       PRES   REMARKS
MEDFORD        PTSUNNY   58  44  58 N8        30.04F
WAUSAU         SUNNY     62  43  49 NE13      30.03F
MOSINEE        MOSUNNY   64  39  39 W12       30.04F
MARSHFIELD     SUNNY     66  40  38 NW8       30.03F
WISC RAPIDS    SUNNY     70  37  29 NW13      30.03F
STEVENS POINT  SUNNY     65  37  35 W5        30.03F
WAUPACA        SUNNY     62  43  49 E15       30.06F
SHAWANO        SUNNY     56  41  56 E10       30.09F
CLINTONVILLE   SUNNY     57  39  51 E12       30.07F
WAUTOMA        SUNNY     70  34  26 NW8       30.02F
$$

WIZ038-039-048-051-232000-
FOX VALLEY

CITY           SKY/WX    TMP DP  RH WIND       PRES   REMARKS
NWS GREEN BAY  SUNNY     51  42  71 NE18      30.11F
APPLETON       MOSUNNY   54  39  58 NE15G21   30.06F
OSHKOSH        SUNNY     55  44  66 E15       30.06S
FOND DU LAC    SUNNY     61  44  53 E14       30.05S
$$

WIZ022-050-052-232000-
EAST CENTRAL WISCONSIN

CITY           SKY/WX    TMP DP  RH WIND       PRES   REMARKS
EPHRAIM        FAIR      41  33  74 N10       30.15S
WASHINGTON ISL CLOUDY    39  29  67 NE14      30.17R
STURGEON BAY   MOSUNNY   45  33  63 N16       30.14S
MANITOWOC      SUNNY     46  37  71 NE10G18   30.12S
SHEBOYGAN      SUNNY     45  39  79 NE22G28   30.11F
$$

LMZ563-521-522-541>543-232000-
LAKESHORE

STATION/POSITION TIME  TEMP    WIND        PRES    VSBY  WAVE
                       AIR SEA DIR/SP/G                  HT/PER
                 (UTC) (F)     (DEG/KT/KT) (MB)    (MI)  (FT/S)
SHEBOYGAN LKSHOR 1900   39      30/ 21/ 23 1020.1F
KEWAUNEE LKSHORE 1848   41      50/ 16/ 19 1019.8F
NORTHPORT PIER   1840   39     350/ 13/ 14 1021.3S
N MID LAKE BUOY  1850   36 37   40/ 14/ 16 1022.7R         3/ 4
CHAMBERS ISLAND  1840   38      30/ 14/ 18 1021.0S
MENOMINEE LKSHOR 1848   39      40/ 16/ 17 1020.3S
$$



USA.gov is the U.S. government's official web portal to all federal, state and local government web resources and services.